User: anonymous   Login
Location: Ku?niki
(51.4449°N, 17.8974°E)
Time: 23:27:50
(UTC+00:00)
Language:

CREW DRAGON DEMO-1 DEB - Orbit

View from above orbital plane
View from above orbital plane
View from above satellite
View from above satellite

Ground track
Ground track

The orbit data is extracted from the following two-line orbital elements,

1 44064U 19011B   21127.60172315  .00073837  00000-0  26778-3 0  9999
2 44064  51.6220  91.6551 0002820 100.8857 259.2465 15.87867267123910
Epoch (UTC): 07 May 2021 14:26:28
Eccentricity: 0.0002820
inclination: 51.6220°
perigee height: 306 km
apogee height: 310 km
right ascension of ascending node: 91.6551°
argument of perigee: 100.8857°
revolutions per day: 15.87867267
mean anomaly at epoch: 259.2465°
orbit number at epoch: 12391

The dashed part of the orbit path shows where the satellite is in the earth's shadow,  

DLR